Reflectivity
-20 -20 -20 -20 -20 -20 -7 -19 -20 -20 -5 0 -18 -20 -19 -3 -20 -20 2 -8 -20 -20 -20 -20 -20 -20 -20 -20 -20 -20 -1 -20 -20 -20 -20 -20 -20 8 -16 -17 -13 -20 -20
-20 -20 -20 -20 -20 -20 -20 -20 -20 -20 -20 -20 -19 -20 -20 -20 -20 -20 -20 -20 -20 -20 -20 -20 -20 -20 -20 -20 -20 -20 -20 -20 -20 -12 -20 -20 -20 -11 -8 -10 -20 -20 -20
-20 -20 -20 -20 -20 -20 -20 -20 -12 -19 -20 -20 -19 -20 -20 -20 -20 -19 -20 -20 -20 -20 -20 -20 -20 -20 -20 -19 -20 -20 -18 -20 -20 -20 -20 -19 -18 -20 -20 -15 -20 -20 -20
-20 -20 -20 -20 -20 -20 -20 -20 -20 -20 -6 -20 -20 -20 -20 -20 -20 -20 -20 -20 -15 -20 -20 -20 -20 -20 -20 -11 -20 16 -20 -20 -20 -20 -20 -20 -14 -20 -6 -16 -20 -20 -20
-20 -20 -20 -20 -20 -20 -20 -20 -20 -20 -20 -20 -20 -20 -20 -11 -20 -20 -20 -14 6 -3 -20 -20 -20 -20 -20 -20 -20 -20 -20 -20 -20 -20 -20 -20 -20 -20 -18 10 -7 -20 -20
-20 -20 -20 -20 -20 -20 -20 -20 -20 -20 -20 -20 -20 -20 -20 -20 -20 -20 -20 9 -20 -20 -20 -20 -20 -20 -20 -20 -20 -20 -20 -20 -20 -20 -20 -18 -10 -20 -20 -11 7 -16 -20
-20 -20 -20 -20 -20 -20 -20 -20 -20 -20 -20 -20 -20 -20 -20 -20 -20 -20 -20 -20 -20 -20 -20 -13 -20 -20 -20 -20 -20 -20 -20 -20 -20 -20 -20 -20 -15 -20 -20 -16 -19 -3 -5
-20 -20 -20 -20 -20 -20 -20 -20 -20 -20 -20 -20 -20 -20 -20 -20 -20 -20 -20 -20 -20 -20 -20 -20 -20 -20 -20 -20 -20 -20 -20 -20 -20 -20 -20 -13 -20 -18 -20 -20 -13 -10 1
-20 -20 -20 -20 -20 -20 -20 -20 -20 -20 -20 -20 -20 -20 -20 -20 -20 -20 -20 -3 -20 -3 -7 -20 -20 -20 1 -20 -20 -20 -20 -20 -20 -20 -20 -9 -20 -20 -20 -20 -20 -20 -9
-20 -20 -20 -20 -20 -20 -20 -20 -20 -20 -20 -20 -20 -20 -20 -20 -20 -20 -20 -20 -20 -20 -20 -20 -20 -20 -20 -20 -20 -20 -20 -20 -20 -20 -20 -20 -3 -20 -20 -16 -14 -16 -20
-20 -20 -20 -20 -20 -20 -20 -20 -20 -20 -20 -20 -20 -20 -20 -20 -20 -20 -20 -20 -20 -20 -20 -20 -20 -20 -20 -20 -20 -20 -20 -20 -20 -20 -20 -20 -20 -20 -20 -20 -15 7 -10
-20 -20 -20 -20 -20 -20 -20 -20 -20 -20 -20 -20 -20 -20 -20 -20 -20 -20 -20 -20 -20 -20 -20 -20 -20 -20 -20 -20 -20 -20 -20 -20 -20 -20 -20 -20 -20 -20 -20 0 -18 -11 -11
-20 -20 -20 -20 -20 -20 -20 -20 -20 -20 -20 -20 -20 -20 -20 -20 -20 -20 -20 -20 -20 -20 -20 -20 -20 -20 -20 -20 -20 -20 -20 -20 -20 -20 -20 -20 -20 -20 -20 -20 5 -19 19
-20 -20 -20 -20 -20 -20 -20 -20 -20 -20 -20 -20 -20 -20 -20 -20 -20 -20 -20 -20 -20 -20 -20 -20 -20 -20 -20 -20 -20 -20 -20 -20 -20 -20 -20 -20 -20 -20 -20 -20 -20 -20 -20
-20 -20 -20 -20 -20 -20 -20 -20 -20 -20 -20 -20 -20 -20 -20 -20 -20 -20 -20 -20 -20 -20 -20 -20 -20 -20 -20 -20 -20 -20 -20 -20 -20 -20 -20 -20 -20 -20 -20 -20 -20 -18 -20
-20 -20 -20 -20 -20 -20 -20 -20 -20 -20 -20 -20 -20 -20 -20 -20 -20 -20 -20 -20 -20 -20 -20 -20 -20 -20 -20 -20 -20 -20 -20 -20 -20 -20 -20 -20 -20 -20 -20 -20 -20 -20 -20
-20 -20 -20 -20 -20 -20 -20 -20 -20 -20 -20 -20 -20 -20 -20 -20 -20 -20 -20 -20 -20 -20 -20 -20 -20 -20 -20 -20 -20 -20 -20 -20 -20 -20 -20 -20 -20 -20 -20 -20 -20 -20 -20
-20 -20 -20 -20 -20 -20 -20 -20 -20 -20 -20 -20 -20 -20 -20 -20 -20 -20 -20 -20 -20 -20 -20 -20 -20 -20 -20 -20 -20 -20 -20 -20 -20 -20 -20 -20 -20 -20 -20 -20 -20 -20 -20
-20 -20 -20 -20 -20 -20 -20 -20 -20 -20 -20 -20 -20 -20 -20 -20 -20 -20 -20 -20 -20 -20 -20 -20 -20 -20 -20 -20 -20 -20 -20 -20 -20 -20 -20 -20 -20 -20 -20 -20 -20 -20 -20
-20 -20 -20 -20 -20 -20 -20 -20 -20 -20 -20 -20 -20 -20 -20 -20 -20 -20 -20 -20 -20 -20 -20 -20 -20 -20 -20 -20 -20 -20 -20 -20 -20 -20 -20 -20 -20 -20 -20 -20 -20 -20 -20
-20 -20 -20 -20 -20 -20 -20 -20 -20 -20 -20 -20 -20 -20 -20 -20 -20 -20 -20 -20 -20 -20 -20 -20 -20 -20 -20 -20 -20 -20 -20 -20 -20 -20 -20 -20 -20 -20 -20 -20 -20 -20 -20
-20 -20 -20 -20 -20 -20 -20 -20 -20 -20 -20 -20 -20 -20 -20 -20 -20 -20 -20 -20 -20 -20 -20 -20 -20 -20 -20 -20 -20 -20 -20 -20 -20 -20 -20 -20 -20 -20 -20 -20 -20 -20 -20
-20 -20 -20 -20 -20 -20 -20 -20 -20 -20 -20 -20 -20 -20 -20 -20 -20 -20 -20 -20 -20 -20 -20 -20 -20 -20 -20 -20 -20 -20 -20 -20 -20 -20 -20 -20 -20 -20 -20 -20 -20 -20 -20
-20 -20 -20 -20 -20 -20 -20 -20 -20 -20 -20 -20 -20 -20 -20 -20 -20 -20 -20 -20 -20 -20 -20 -20 -20 -20 -20 -20 -20 -20 -20 -20 -20 -20 -20 -20 -20 -20 -20 -20 -20 -20 -20
-20 -20 -20 -20 -20 -20 -20 -20 -20 -20 -20 -20 -20 -20 -20 -20 -20 -20 -20 -20 -20 -20 -20 -20 -20 -18 -20 -20 -20 -14 -20 -20 -20 -20 -20 -20 -18 -17 -20 -20 -20 -20 -20
-20 -20 -20 -20 -20 -20 -20 -20 -20 -20 -20 -20 -20 -20 -20 -20 -20 -20 -20 -20 -20 -20 -20 -20 -20 -20 -20 -9 -19 -2 -20 -19 -20 -20 -14 -19 -20 -16 -0 -9 -19 -20 -20
Wind_Speed
2 2 0 2 6 6 12 8 8 10 12 11 10 9 9 10 11 8 9 8 10 9 8 7 6 6 5 6 4 5 6 6 4 5 6 7 9 10 9 10 9 5 8
5 1 1 4 6 10 8 9 8 11 11 10 9 8 8 9 11 9 12 10 10 9 7 7 5 5 3 4 3 4 6 5 6 6 5 6 4 7 8 8 9 6 7
4 2 2 3 7 7 10 11 11 9 10 10 8 6 6 8 9 9 12 12 9 6 6 3 1 3 3 3 4 2 2 2 5 1 4 2 3 1 4 5 7 9 8
5 2 3 5 6 8 10 10 12 12 11 9 7 5 5 8 8 9 8 5 2 3 3 2 2 3 2 2 3 2 4 8 8 5 4 3 2 1 3 4 5 8 8
6 5 3 6 6 9 9 11 10 11 10 9 7 6 6 7 7 6 4 4 4 2 1 2 2 1 0 3 2 8 8 7 7 5 1 2 4 4 7 5 6 6 9
5 5 5 6 7 8 8 9 8 9 9 9 6 6 6 6 8 6 3 3 4 2 3 1 3 2 3 4 6 5 5 4 4 2 2 3 1 5 7 11 9 9 13
6 4 5 5 8 8 7 8 8 8 9 7 6 6 6 6 7 5 2 1 4 7 7 4 4 4 7 8 8 8 8 7 5 4 3 3 2 4 9 14 10 9 9
7 6 5 5 5 6 7 8 7 9 7 6 7 7 7 7 7 7 7 7 7 6 5 5 5 2 6 7 6 7 8 8 5 3 4 4 7 8 8 9 6 9 9
5 5 3 3 3 6 7 5 5 5 6 6 7 8 7 8 8 9 10 9 10 10 10 7 7 7 9 10 11 10 10 10 5 4 5 3 13 13 11 10 9 11 10
4 3 3 2 2 4 3 3 3 2 3 4 6 6 6 7 7 7 8 9 10 11 11 11 10 10 10 10 11 10 9 9 5 5 5 6 15 16 13 12 9 13 10
2 3 3 3 1 1 1 1 2 1 2 3 5 5 4 3 3 3 5 8 9 8 7 7 8 8 9 9 9 9 8 3 4 3 2 10 15 16 18 15 10 4 8
4 4 4 4 3 2 1 1 3 2 2 2 3 4 2 2 2 2 2 4 4 5 5 5 7 7 6 4 4 7 3 3 3 3 3 10 13 14 13 14 14 10 7
6 3 6 5 4 4 4 2 1 2 1 1 2 4 3 2 1 1 1 2 2 4 3 3 3 3 4 3 3 3 3 1 1 0 2 7 8 11 12 11 10 11 10
7 7 5 5 4 4 3 3 3 2 2 2 3 4 3 2 3 3 3 2 1 1 0 1 1 2 2 2 1 3 3 3 3 2 3 8 10 10 10 12 10 11 11
7 6 7 5 5 4 4 3 3 3 3 3 3 3 3 3 4 3 3 2 2 2 1 1 1 0 2 3 2 1 2 3 3 2 2 9 8 9 11 12 12 12 12
6 8 6 6 6 4 4 3 3 3 3 3 3 4 4 4 4 4 3 3 3 3 2 2 1 1 0 2 3 4 3 2 3 4 3 5 12 11 11 12 13 13 13
7 6 8 6 4 5 4 4 3 3 3 4 4 5 5 5 5 5 4 4 4 4 4 2 1 0 0 1 1 2 3 3 2 3 3 3 5 10 12 12 15 16 16
5 8 6 4 6 6 4 3 2 3 3 3 4 4 6 6 6 5 4 5 4 4 4 3 3 3 2 2 2 3 2 3 3 1 1 2 4 3 7 12 14 16 17
5 6 6 5 8 6 4 2 3 4 4 4 4 4 6 6 6 5 5 5 6 5 5 4 4 4 4 4 4 3 3 3 3 2 2 1 3 4 3 8 14 14 16
7 6 5 6 6 5 1 1 3 3 4 4 5 6 7 6 7 6 5 6 5 4 4 4 5 4 4 4 3 3 4 4 3 3 3 2 1 2 3 4 4 5 15
4 6 8 7 7 3 1 2 2 5 4 4 5 7 7 7 8 8 6 5 6 7 9 8 5 6 5 4 1 2 3 5 5 5 4 3 1 1 1 3 3 3 4
6 8 7 8 6 5 1 1 1 2 3 4 4 6 7 7 8 9 9 9 9 8 7 8 7 4 4 5 4 2 2 4 2 4 3 3 3 2 1 3 4 5 4
7 8 5 4 4 2 3 2 3 2 3 3 4 4 6 7 9 8 10 10 10 9 10 12 10 9 7 4 5 4 2 6 0 2 4 2 2 0 1 2 5 5 4
4 5 5 5 5 5 4 2 2 2 4 4 4 4 9 7 8 9 10 11 11 8 9 8 6 5 4 5 1 2 1 3 4 3 2 2 2 1 3 3 3 5 5
7 6 7 6 6 4 3 2 3 5 4 5 6 8 8 9 7 8 9 10 8 5 3 5 5 5 3 3 3 1 2 2 2 3 3 2 2 3 3 3 4 4 4
8 7 5 6 5 7 8 7 5 7 8 7 7 6 6 5 5 6 6 2 3 4 5 5 6 7 5 5 4 3 2 2 2 3 2 2 5 4 2 3 4 4 4
Wind_Direction
212 229 225 38 26 70 96 105 105 101 95 87 77 69 85 101 94 91 92 72 68 83 88 79 75 68 72 88 111 119 116 131 123 98 107 126 133 117 125 116 96 92 110
112 60 40 36 41 59 81 78 66 88 84 94 93 97 102 102 99 96 87 74 65 65 74 85 95 97 77 84 86 113 134 148 116 128 131 109 89 146 139 120 123 134 141
103 76 80 84 73 56 59 68 74 68 94 99 114 122 118 95 87 91 79 61 43 51 66 59 177 174 186 151 99 79 125 89 81 62 100 48 105 161 149 149 138 146 156
121 139 164 118 82 71 62 77 73 68 64 87 101 106 125 113 115 108 96 82 322 39 27 356 328 297 214 149 167 171 40 35 25 5 14 358 325 107 225 215 201 170 171
140 154 153 120 122 87 74 61 65 68 61 67 87 98 100 101 101 105 73 29 325 191 88 10 320 321 11 232 278 40 41 40 34 24 25 348 327 351 298 240 240 221 187
159 156 155 138 113 100 105 103 93 90 87 76 74 80 79 85 106 147 172 218 204 181 201 339 322 329 289 318 336 31 33 24 36 1 321 254 202 311 289 284 256 245 198
154 165 165 152 148 142 127 109 93 86 77 86 81 80 82 72 74 77 114 163 46 33 11 1 337 338 338 6 354 360 8 7 14 346 358 332 325 315 316 313 219 224 199
159 168 172 168 135 108 86 76 71 65 65 59 55 58 62 62 64 63 59 58 48 48 37 22 8 8 353 350 352 8 14 20 37 23 353 336 342 335 313 317 256 223 220
167 150 140 84 75 70 66 78 80 86 89 79 59 53 51 52 50 47 47 59 58 59 56 57 51 46 54 48 35 28 29 24 21 4 9 4 358 329 298 297 276 225 213
140 127 145 151 80 74 60 49 75 82 93 96 90 85 73 60 61 65 63 71 69 64 59 57 51 43 47 47 48 38 47 36 28 12 3 348 356 351 328 317 272 210 202
168 171 179 187 156 106 124 85 61 61 95 106 116 130 104 106 93 77 108 103 95 88 78 68 56 38 33 25 28 52 57 32 31 7 354 356 353 357 356 356 357 236 218
203 218 204 209 208 221 251 181 120 96 101 126 149 157 153 144 147 130 137 116 106 103 79 56 46 43 40 31 14 18 56 23 11 341 340 353 354 349 350 356 355 339 321
199 210 205 211 227 218 232 201 183 161 141 153 169 184 189 180 178 142 240 341 358 16 26 36 32 37 26 24 15 359 350 45 136 92 338 10 3 344 343 340 340 342 331
197 202 205 209 211 225 235 215 202 182 170 206 222 198 185 193 203 212 216 229 212 239 110 78 358 333 353 344 327 324 336 355 350 356 358 2 2 354 346 337 329 324 321
198 204 208 192 204 221 219 202 189 200 195 198 199 199 189 207 214 218 234 221 226 208 211 199 175 290 339 336 347 48 9 10 28 13 353 360 10 7 356 351 344 329 310
198 202 202 202 207 194 200 192 205 199 197 193 205 213 215 211 206 207 217 222 220 203 195 209 204 140 344 343 341 344 360 64 20 19 6 351 7 23 24 10 353 339 325
201 183 197 200 203 210 204 199 206 212 186 202 216 224 226 218 211 199 200 212 219 204 190 186 191 132 218 270 275 322 327 335 357 28 11 19 8 18 21 23 18 6 359
161 180 185 179 202 218 219 224 241 253 242 238 229 222 229 231 219 205 200 211 205 201 193 191 189 199 224 234 267 282 296 306 312 346 27 20 12 15 6 6 9 1 353
162 167 198 207 217 219 227 234 257 268 253 243 245 234 232 232 226 215 212 215 192 196 199 196 204 182 192 211 223 233 242 242 251 295 237 53 25 4 3 4 1 1 360
176 186 190 214 228 218 212 302 287 284 264 245 233 226 225 223 221 214 222 217 197 198 211 205 204 207 200 204 219 240 245 237 211 225 247 185 326 14 9 9 1 350 349
169 183 201 210 222 169 164 226 254 242 261 260 246 240 233 229 227 221 227 218 203 206 213 202 184 202 227 197 142 279 264 232 226 197 205 213 185 320 10 4 344 352 334
179 202 208 226 221 214 160 284 272 326 296 285 280 273 248 238 229 222 223 224 211 216 216 201 186 190 220 180 174 106 292 317 308 226 238 196 204 172 14 356 343 322 330
199 209 231 289 318 299 265 316 333 305 296 304 302 289 274 255 257 234 237 233 225 212 219 214 203 190 211 193 210 159 141 221 342 297 215 244 164 134 48 0 308 312 311
317 338 337 346 340 345 345 336 312 265 277 260 271 272 291 280 262 254 248 241 236 230 233 219 199 197 146 173 204 240 340 146 178 292 305 248 316 42 323 311 294 288 289
21 23 22 33 69 62 48 16 338 309 268 271 279 282 284 284 270 266 258 256 242 226 211 171 137 139 133 143 130 121 1 348 31 169 246 286 290 233 227 247 264 278 286
30 34 28 27 18 15 5 352 308 290 306 311 300 288 279 265 277 289 273 233 108 95 95 101 94 84 78 65 81 65 71 17 10 350 329 295 270 282 224 251 248 257 271